Weather History for Monarch Pass, CO

Change the Weather History Date:

Thursday, October 31, 2013

  Actual Average (KGUC) Record (KGUC)
Temperature  
Mean Temperature 16 °F -  
Max Temperature 17 °F 47 °F 60 °F (1999)
Min Temperature 14 °F 19 °F 15 °F (2006)
Degree Days  
Heating Degree Days 50    
Moisture  
Dew Point 13 °F    
Average Humidity 89    
Maximum Humidity 93    
Minimum Humidity 86    
Precipitation  
Precipitation 0.00 in - - ()
Sea Level Pressure  
Sea Level Pressure 30.10 in    
Wind  
Wind Speed - (North)    
Max Wind Speed -    
Max Gust Speed -    
Averages and records for this station are not official NWS values.
T = Trace of Precipitation, MM = Missing Value Source: NWS Daily Summary

Daily Weather History Graph

Daily Weather History Graph

Search for Another Location

Airport:

Trip Planner

Search our weather history database for the weather conditions in past years. The results will help you decide how hot, cold, wet, or windy it might be!

Date:

Astronomy

Oct. 31, 2013 Rise Set
Actual Time 7:31 AM MDT 6:06 PM MDT
Civil Twilight 7:03 AM MDT 6:33 PM MDT
Nautical Twilight 6:32 AM MDT 7:04 PM MDT
Astronomical Twilight 6:01 AM MDT 7:35 PM MDT
Moon 4:25 AM MDT (10/31) 4:24 PM MDT (10/31)
Length of Visible Light 11h 30m
Length of Day
10h 35m
Waning Crescent, 9% of the Moon is Illuminated
Oct 31
Waning Crescent
Nov 3
New
Nov 9
First Quarter
Nov 17
Full
Nov 25
Last Quarter

Hourly Weather History & Observations

Time (MDT) Temp. Dew Point Humidity Pressure Visibility Wind Dir Wind Speed Gust Speed Precip Events Conditions
12:16 AM 14.0 °F 12.2 °F 93% 30.01 in 0.2 mi North - - N/A Fog Light Freezing Fog
12:36 AM 14.0 °F 12.2 °F 93% 30.01 in 0.2 mi North - - N/A Fog Light Freezing Fog
12:56 AM 14.0 °F 12.2 °F 93% 30.01 in 0.2 mi North - - N/A Fog Light Freezing Fog
1:16 AM 14.0 °F 12.2 °F 93% 30.01 in 0.2 mi North - - N/A Fog Light Freezing Fog
1:36 AM 14.0 °F 12.2 °F 93% 30.01 in 0.2 mi North - - N/A Fog Light Freezing Fog
1:56 AM 14.0 °F 12.2 °F 93% 30.02 in 0.2 mi North - - N/A Fog Light Freezing Fog
2:16 AM 14.0 °F 12.2 °F 93% 30.03 in 0.2 mi North - - N/A Fog Light Freezing Fog
2:36 AM 14.0 °F 12.2 °F 93% 30.02 in 0.2 mi North - - N/A Fog Light Freezing Fog
2:56 AM 14.0 °F 12.2 °F 93% 30.02 in 0.2 mi North - - N/A Fog Light Freezing Fog
3:15 AM 14.0 °F 12.2 °F 93% 30.00 in 0.2 mi North - - N/A Fog Light Freezing Fog
3:35 AM 14.0 °F 12.2 °F 93% 30.01 in 0.2 mi North - - N/A Fog Light Freezing Fog
3:56 AM 15.8 °F 12.2 °F 86% 30.01 in 0.2 mi North - - N/A Snow Heavy Snow
4:16 AM 14.0 °F 12.2 °F 93% 30.00 in 0.2 mi North - - N/A Snow Heavy Snow
4:36 AM 14.0 °F 12.2 °F 93% 30.01 in 0.2 mi North - - N/A Snow Light Snow
4:56 AM 14.0 °F 12.2 °F 93% 30.02 in 0.2 mi North - - N/A Snow Light Snow
5:16 AM 14.0 °F 12.2 °F 93% 30.02 in 0.2 mi North - - N/A Snow Light Snow
5:36 AM 14.0 °F 12.2 °F 93% 30.03 in 0.2 mi North - - N/A Snow Heavy Snow
5:56 AM 14.0 °F 12.2 °F 93% 30.01 in 0.2 mi North - - N/A Snow Light Snow
6:16 AM 14.0 °F 12.2 °F 93% 30.01 in - North - - N/A   Overcast
6:36 AM 14.0 °F 10.4 °F 86% 30.02 in - North - - N/A   Overcast
6:56 AM 14.0 °F 10.4 °F 86% 30.03 in - North - - N/A   Overcast
7:16 AM 14.0 °F 10.4 °F 86% 30.03 in - North - - N/A   Overcast
7:36 AM 14.0 °F 10.4 °F 86% 30.04 in - North - - N/A   Overcast
7:56 AM 14.0 °F 10.4 °F 86% 30.06 in - North - - N/A   Overcast
8:16 AM 14.0 °F 10.4 °F 86% 30.09 in - North - - N/A   Overcast
8:36 AM 14.0 °F 12.2 °F 93% 30.10 in - North - - N/A   Overcast
8:56 AM 14.0 °F 12.2 °F 93% 30.13 in - North - - N/A   Overcast
9:16 AM 14.0 °F 12.2 °F 93% 30.12 in - North - - N/A   Overcast
9:36 AM 15.8 °F 12.2 °F 86% 30.12 in - North - - N/A   Overcast
9:56 AM 15.8 °F 12.2 °F 86% 30.14 in - North - - N/A   Overcast
10:16 AM 17.6 °F 14.0 °F 86% 30.15 in - North - - N/A   Overcast
10:36 AM 15.8 °F 14.0 °F 93% 30.14 in - North - - N/A   Overcast
10:56 AM 15.8 °F 14.0 °F 93% 30.13 in - North - - N/A   Overcast
11:16 AM 15.8 °F 14.0 °F 93% 30.14 in - North - - N/A   Overcast
11:36 AM 15.8 °F 14.0 °F 93% 30.13 in 0.2 mi North - - N/A Fog Light Freezing Fog
11:56 AM 17.6 °F 14.0 °F 86% 30.14 in 0.2 mi North - - N/A Fog Light Freezing Fog
12:16 PM 17.6 °F 14.0 °F 86% 30.12 in 0.2 mi North - - N/A Fog Light Freezing Fog
12:36 PM 17.6 °F 14.0 °F 86% 30.13 in 0.2 mi North - - N/A Fog Light Freezing Fog
12:56 PM 17.6 °F 14.0 °F 86% 30.11 in 0.2 mi North - - N/A Fog Light Freezing Fog
1:16 PM 17.6 °F 14.0 °F 86% 30.10 in 0.2 mi North - - N/A Fog Light Freezing Fog
1:36 PM 17.6 °F 14.0 °F 86% 30.08 in 0.2 mi North - - N/A Fog Light Freezing Fog
1:56 PM 17.6 °F 14.0 °F 86% 30.10 in 0.2 mi North - - N/A Fog Light Freezing Fog
2:16 PM 17.6 °F 14.0 °F 86% 30.10 in 0.2 mi North - - N/A Fog Light Freezing Fog
2:36 PM 17.6 °F 14.0 °F 86% 30.09 in 0.2 mi North - - N/A Fog Light Freezing Fog
2:56 PM 17.6 °F 14.0 °F 86% 30.09 in 0.2 mi North - - N/A Fog Light Freezing Fog
3:16 PM 17.6 °F 14.0 °F 86% 30.09 in 0.2 mi North - - N/A Fog Light Freezing Fog
3:36 PM 17.6 °F 14.0 °F 86% 30.10 in 0.2 mi North - - N/A Fog Light Freezing Fog
3:56 PM 17.6 °F 14.0 °F 86% 30.10 in 0.2 mi North - - N/A Fog Light Freezing Fog
4:16 PM 17.6 °F 14.0 °F 86% 30.11 in 0.2 mi North - - N/A Fog Light Freezing Fog
4:36 PM 17.6 °F 14.0 °F 86% 30.12 in 0.2 mi North - - N/A Fog Light Freezing Fog
4:56 PM 17.6 °F 14.0 °F 86% 30.13 in 0.2 mi North - - N/A Fog Light Freezing Fog
5:16 PM 17.6 °F 14.0 °F 86% 30.10 in 0.2 mi North - - N/A Fog Light Freezing Fog
5:36 PM 17.6 °F 14.0 °F 86% 30.13 in 0.2 mi North - - N/A Fog Light Freezing Fog
5:56 PM 17.6 °F 14.0 °F 86% 30.14 in 0.2 mi North - - N/A Fog Light Freezing Fog
6:16 PM 17.6 °F 14.0 °F 86% 30.12 in - North - - N/A   Overcast
6:36 PM 17.6 °F 14.0 °F 86% 30.14 in - North - - N/A   Overcast
6:56 PM 17.6 °F 14.0 °F 86% 30.14 in - North - - N/A   Overcast
7:16 PM 17.6 °F 14.0 °F 86% 30.14 in - North - - N/A   Overcast
7:36 PM 17.6 °F 14.0 °F 86% 30.15 in - North - - N/A   Overcast
7:56 PM 17.6 °F 14.0 °F 86% 30.17 in - North - - N/A   Overcast
8:16 PM 17.6 °F 14.0 °F 86% 30.17 in - North - - N/A   Overcast
8:36 PM 17.6 °F 14.0 °F 86% 30.17 in - North - - N/A   Overcast
8:56 PM 15.8 °F 14.0 °F 93% 30.16 in - North - - N/A   Overcast
9:16 PM 15.8 °F 14.0 °F 93% 30.18 in - North - - N/A   Overcast
9:36 PM 15.8 °F 14.0 °F 93% 30.20 in - North - - N/A   Overcast
9:56 PM 15.8 °F 14.0 °F 93% 30.20 in - North - - N/A   Overcast
10:16 PM 17.6 °F 14.0 °F 86% 30.20 in - North - - N/A   Overcast
10:36 PM 17.6 °F 14.0 °F 86% 30.20 in - North - - N/A   Overcast
10:56 PM 17.6 °F 14.0 °F 86% 30.20 in - North - - N/A   Overcast
11:16 PM 17.6 °F 14.0 °F 86% 30.19 in - North - - N/A   Overcast
11:36 PM 17.6 °F 14.0 °F 86% 30.17 in - North - - N/A   Overcast
11:56 PM 17.6 °F 14.0 °F 86% 30.17 in - North - - N/A   Overcast